Regional Weather Roundup
Issued by NWS

Home | Current Version | Previous Version | Text Only | Print | Product List | Glossary On
Versions: 1 2 3 4 5 6 7 8 9 10 11 12 13 14 15 16 17 18 19 20 21 22 23 24 25 26 27 28 29 30 31 32 33 34 35 36 37 38 39 40 41 42 43 44 45 46 47 48 49 50
000
ASUS45 KBOU 271510
RWRCO

WEATHER ROUNDUP FOR COLORADO
NATIONAL WEATHER SERVICE DENVER/BOULDER CO
900 AM MDT TUE SEP 27 2016

NOTE: "FAIR" INDICATES FEW OR NO CLOUDS BELOW 12000 FEET WITH NO
SIGNIFICANT WEATHER AND/OR OBSTRUCTIONS TO VISIBILITY.

COZ001>005-013-030-031-271600-
...NORTHWEST COLORADO...

CITY           SKY/WX    TMP DP  RH WIND       PRES   REMARKS
CRAIG          FAIR      42  37  82 CALM      30.37S
HAYDEN         FAIR      46  32  57 E10       30.37S
MEEKER         FAIR      44  38  79 CALM      30.37F
MOUNT WERNER   NOT AVBL
STEAMBOAT SPGS FAIR      42  34  74 CALM      30.38S
WALDEN           N/A     37  30  75 CALM      30.46S
$$

COZ006>008-011-271600-
...WEST CENTRAL VALLEYS...

CITY           SKY/WX    TMP DP  RH WIND       PRES   REMARKS
GRAND JUNCTION FAIR      57  39  51 SE12      30.29S
MONTROSE       FAIR      52  38  58 SE3       30.35F
EAGLE          SUNNY     43  30  61 CALM      30.44F
RIFLE          FAIR      48  42  80 CALM      30.35S
DELTA          FAIR      54  38  54 E5        30.33F
NUCLA          FAIR      54  36  50 CALM      30.38R
$$

COZ017>023-064>068-271600-
...SOUTHWEST COLORADO...

CITY           SKY/WX    TMP DP  RH WIND       PRES   REMARKS
DURANGO        FAIR      50  36  58 CALM      30.37S
CORTEZ         FAIR      50  38  63 CALM      30.34R
PAGOSA SPRINGS FAIR      49  35  58 CALM      30.42S
TELLURIDE      FAIR      49  37  62 CALM      30.50S
WOLF CREEK PAS FAIR      41  30  65 MISG      30.66S
$$

COZ009-010-012-014-032>034-037-058>063-271600-
...CENTRAL COLORADO...

CITY           SKY/WX    TMP DP  RH WIND       PRES   REMARKS
ASPEN          FAIR      49  32  52 CALM      30.42S
BUENA VISTA    FAIR      50  26  40 NW7       30.44F
COPPER MTN     FAIR      48  25  40 NW5       30.64S
BERTHOUD PASS  FAIR      37  27  65 N21G26    30.66S
COTTONWOOD PAS FAIR      54  23  30 E3        30.51F
GUNNISON       FAIR      39  28  65 CALM      30.48F
KREMMLING      FAIR      37  27  65 CALM      30.47F
LEADVILLE      FAIR      45  26  47 CALM      30.51F
MONARCH PASS   FAIR      41  25  52 SW12      30.74R
SALIDA         FAIR      47  27  45 CALM      30.50F
SUNLIGHT       FAIR      50  32  50 SW3       30.60S
WILKERSON PASS FAIR      50  23  34 N6        30.62S
$$

COZ069>075-271600-
...SAN LUIS VALLEY/SANGRE DE CRISTO MOUNTAINS...

CITY           SKY/WX    TMP DP  RH WIND       PRES   REMARKS
ALAMOSA        FAIR      44  30  57 CALM      30.44R
LA VETA PASS   FAIR      43  30  61 MISG      30.54S
SAGUACHE       NOT AVBL
$$

COZ035-036-038>040-271600-
...NORTHERN COLORADO FRONT RANGE...

CITY           SKY/WX    TMP DP  RH WIND       PRES   REMARKS
DENVER INTL AP FAIR      61  31  32 SW8       30.26R
DMNS CITY PARK   N/A     58  32  36 SE7       30.26S
AURORA         MOSUNNY   59  31  35 SW7       30.27R
FRONT RANGE AP SUNNY     63  32  31 MISG      30.27R
ERIE MUNI ARPT FAIR      58  35  42 CALM      30.25S
BOULDER MUN AP FAIR      61  34  36 CALM      30.25S
CENTENNIAL     FAIR      58  33  39 E3        30.27S
BROOMFIELD     SUNNY     61  34  36 CALM      30.28R
FORT COLLINS   FAIR      57  39  51 S8        30.24S
LONGMONT       FAIR      60  37  43 CALM      30.26S
$$

COZ041-046-047-076>085-087-088-271600-
...PIKES PEAK/PALMER DIVIDE AND SOUTHERN FOOTHILLS...

CITY           SKY/WX    TMP DP  RH WIND       PRES   REMARKS
COLO. SPRINGS  FAIR      64  28  25 CALM      30.30S
A. F. ACADEMY  FAIR      57  31  37 N5        30.31S
SCHRIEVER AFB  NOT AVBL
ELLICOTT       NOT AVBL
FALCON         FAIR      63  28  26 S5        30.34S
FORT CARSON    FAIR      61  33  34 N3        30.27S
LIMON          FAIR      62  31  31 CALM      30.26S
MONUMENT HILL  FAIR      63  30  29 SW7       30.34S
TRINIDAD       FAIR      61  34  36 SW13      30.30F
$$

COZ042>045-048>051-090-091-271600-
...NORTHEAST COLORADO...

CITY           SKY/WX    TMP DP  RH WIND       PRES   REMARKS
GREELEY ARPT   FAIR      54  43  66 SW3       30.25R
AKRON          FAIR      57  35  43 SW13      30.22S
BURLINGTON     FAIR      62  41  46 W9        30.22R
WRAY           NOT AVBL
STERLING       FAIR      52  41  66 S6        30.19S
HOLYOKE        FAIR      63  43  48 W8        30.18S
FORT MORGAN    FAIR      53  38  58 W7        30.24R
$$

COZ086-089-092>099-271600-
...SOUTHEAST COLORADO...

CITY           SKY/WX    TMP DP  RH WIND       PRES   REMARKS
PUEBLO         FAIR      58  32  37 SW7       30.24F
LA JUNTA       FAIR      59  32  36 W9        30.22F
LAMAR          FAIR      58  35  42 NW7       30.21R
SPRINGFIELD    NOT AVBL
$$



USA.gov is the U.S. government's official web portal to all federal, state and local government web resources and services.